TimeEDT,TemperatureF,Dew PointF,Humidity,Sea Level PressureIn,VisibilityMPH,Wind Direction,Wind SpeedMPH,Gust SpeedMPH,PrecipitationIn,Events,Conditions,WindDirDegrees,DateUTC
12:51 AM,59.0,48.0,67,29.80,10.0,SW,6.9,-,N/A,,Clear,230,2012-03-31 04:51:00
1:51 AM,59.0,48.0,67,29.78,10.0,SW,10.4,-,N/A,,Scattered Clouds,220,2012-03-31 05:51:00
2:51 AM,59.0,48.0,67,29.78,10.0,WSW,4.6,-,N/A,,Mostly Cloudy,240,2012-03-31 06:51:00
3:51 AM,57.0,48.9,74,29.76,10.0,SW,6.9,-,N/A,,Overcast,220,2012-03-31 07:51:00
4:51 AM,57.0,48.0,72,29.75,10.0,WSW,3.5,-,N/A,,Scattered Clouds,250,2012-03-31 08:51:00
5:51 AM,55.9,48.9,77,29.76,10.0,WSW,4.6,-,N/A,,Partly Cloudy,240,2012-03-31 09:51:00
6:51 AM,54.0,48.9,83,29.77,10.0,Calm,Calm,-,N/A,,Clear,0,2012-03-31 10:51:00
7:51 AM,54.0,48.9,83,29.78,10.0,WSW,4.6,-,N/A,,Clear,240,2012-03-31 11:51:00
8:51 AM,57.9,50.0,75,29.80,10.0,West,8.1,-,N/A,,Overcast,270,2012-03-31 12:51:00
9:51 AM,61.0,50.0,67,29.81,10.0,West,9.2,-,N/A,,Mostly Cloudy,280,2012-03-31 13:51:00
10:13 AM,62.6,48.2,59,29.86,10.0,NW,13.8,19.6,N/A,,Overcast,320,2012-03-31 14:13:00
10:22 AM,60.8,48.2,63,29.86,10.0,NW,10.4,-,N/A,,Overcast,310,2012-03-31 14:22:00
10:40 AM,60.8,48.2,63,29.87,10.0,NNW,9.2,-,N/A,,Overcast,330,2012-03-31 14:40:00
10:47 AM,60.8,48.2,63,29.87,10.0,NNW,12.7,19.6,N/A,,Overcast,330,2012-03-31 14:47:00
10:51 AM,61.0,48.0,62,29.81,10.0,WNW,8.1,19.6,N/A,,Overcast,300,2012-03-31 14:51:00
11:51 AM,61.0,48.0,62,29.81,10.0,NNW,13.8,-,N/A,,Overcast,340,2012-03-31 15:51:00
12:08 PM,60.8,48.2,63,29.87,10.0,North,13.8,-,N/A,,Overcast,350,2012-03-31 16:08:00
12:51 PM,63.0,48.9,60,29.80,10.0,WNW,11.5,-,N/A,,Overcast,300,2012-03-31 16:51:00
1:41 PM,60.8,50.0,68,29.86,10.0,NW,11.5,17.3,N/A,,Overcast,320,2012-03-31 17:41:00
1:51 PM,62.1,51.1,67,29.80,10.0,WNW,9.2,-,N/A,,Overcast,290,2012-03-31 17:51:00
1:59 PM,62.6,51.8,68,29.86,10.0,WNW,9.2,-,N/A,,Mostly Cloudy,290,2012-03-31 17:59:00
2:51 PM,61.0,48.9,64,29.80,10.0,NW,11.5,20.7,0.01,,Scattered Clouds,320,2012-03-31 18:51:00
3:51 PM,64.0,48.0,56,29.78,10.0,NW,8.1,20.7,N/A,,Scattered Clouds,310,2012-03-31 19:51:00
4:51 PM,64.0,48.9,58,29.77,10.0,NNW,13.8,19.6,N/A,,Partly Cloudy,340,2012-03-31 20:51:00
5:51 PM,60.1,50.0,69,29.78,10.0,NNW,12.7,-,N/A,,Partly Cloudy,330,2012-03-31 21:51:00
6:12 PM,57.2,48.2,72,29.83,10.0,North,15.0,-,N/A,,Mostly Cloudy,350,2012-03-31 22:12:00
6:51 PM,55.9,48.0,75,29.81,10.0,NNW,11.5,19.6,N/A,,Scattered Clouds,340,2012-03-31 22:51:00
7:10 PM,55.4,48.2,77,29.85,10.0,North,11.5,-,N/A,,Mostly Cloudy,350,2012-03-31 23:10:00
7:47 PM,53.6,46.4,77,29.86,9.0,North,10.4,-,N/A,,Mostly Cloudy,350,2012-03-31 23:47:00
7:51 PM,53.1,46.9,80,29.84,8.0,NNW,10.4,-,N/A,,Overcast,340,2012-03-31 23:51:00
8:18 PM,51.8,46.4,82,29.87,10.0,NNW,9.2,-,N/A,,Mostly Cloudy,340,2012-04-01 00:18:00
8:51 PM,51.1,45.0,80,29.84,9.0,North,8.1,-,N/A,,Overcast,350,2012-04-01 00:51:00
9:48 PM,50.0,42.8,76,29.90,10.0,NW,5.8,-,N/A,,Scattered Clouds,310,2012-04-01 01:48:00
9:51 PM,50.0,43.0,77,29.87,10.0,NW,6.9,-,N/A,,Scattered Clouds,310,2012-04-01 01:51:00
9:59 PM,50.0,42.8,76,29.90,10.0,NNW,4.6,-,N/A,,Mostly Cloudy,330,2012-04-01 01:59:00
10:51 PM,48.0,41.0,77,29.87,10.0,North,5.8,-,N/A,,Mostly Cloudy,350,2012-04-01 02:51:00
11:46 PM,46.4,39.2,76,29.90,10.0,Calm,Calm,-,N/A,,Scattered Clouds,0,2012-04-01 03:46:00
11:51 PM,46.9,39.9,77,29.87,10.0,Calm,Calm,-,N/A,,Partly Cloudy,0,2012-04-01 03:51:00